Location: Góry Miechowskie
(50.3599°N, 20.1803°E)
Time: 14:25:16
(UTC+00:00)

SR - Visible Passes

Search period start: 13 September 2024 00:00
Search period end: 23 September 2024 00:00
Orbit: 579 x 855 km, 66.7° (Epoch: 12 September)

Date Brightness Start Highest point End Pass type
(mag) Time Alt. Az. Time Alt. Az. Time Alt. Az.
13 Sep ? 18:42:58 10° NNW 18:46:15 20° NNE 18:48:10 16° ENE visible
13 Sep ? 20:24:10 10° NW 20:27:20 45° NNW 20:27:20 45° NNW visible
14 Sep ? 17:50:26 10° N 17:52:47 14° NNE 17:55:12 10° NE visible
14 Sep ? 19:31:23 10° NNW 19:35:43 42° NE 19:35:43 42° NE visible
14 Sep ? 21:13:15 10° NW 21:14:53 20° WNW 21:14:53 20° WNW visible
15 Sep ? 18:38:43 10° NNW 18:42:31 26° NE 18:44:07 21° ENE visible
15 Sep ? 20:20:07 10° NW 20:23:17 43° NW 20:23:17 43° NW visible
16 Sep ? 17:46:06 10° NNW 17:49:07 17° NNE 17:52:16 10° ENE visible
16 Sep ? 19:27:12 10° NNW 19:31:41 63° NE 19:31:41 63° NE visible
16 Sep ? 21:09:35 10° WNW 21:10:52 16° WNW 21:10:52 16° WNW visible
17 Sep ? 18:34:26 10° NNW 18:38:38 35° NE 18:40:08 29° E visible
17 Sep ? 20:16:07 10° NW 20:19:18 36° W 20:19:18 36° W visible
18 Sep ? 17:41:44 10° NNW 17:45:20 22° NE 17:48:35 12° E visible
18 Sep ? 19:23:02 10° NW 19:27:40 87° SW 19:27:46 85° S visible
18 Sep ? 21:06:17 10° WNW 21:06:56 12° W 21:06:56 12° W visible
19 Sep ? 18:30:09 10° NNW 18:34:37 51° NE 18:36:15 35° E visible
19 Sep ? 20:12:13 10° NW 20:15:26 27° W 20:15:26 27° W visible
20 Sep ? 17:37:22 10° NNW 17:41:24 30° NE 17:44:47 14° E visible
20 Sep ? 19:18:53 10° NW 19:23:27 56° WSW 19:23:57 53° SSW visible
21 Sep ? 18:25:51 10° NW 18:30:29 77° NE 18:32:31 35° SE visible
21 Sep ? 20:08:32 10° WNW 20:11:43 19° WSW 20:11:43 19° WSW visible
22 Sep ? 17:32:57 10° NNW 17:37:21 42° NE 17:41:09 15° ESE visible
22 Sep ? 19:14:48 10° NW 19:19:07 36° WSW 19:20:20 31° SSW visible
